Time,TemperatureF,DewpointF,PressureIn,WindDirection,WindDirectionDegrees,WindSpeedMPH,WindSpeedGustMPH,Humidity,HourlyPrecipIn,Conditions,Clouds,dailyrainin,SoftwareType,DateUTC
2013-11-06 00:02:00,77.5,69.0,18.01,North,0,0.0,0.0,75,0.00,,SHRA,0.00,VWS V14.01,2013-11-06 04:02:00,
2013-11-06 00:07:00,77.4,68.8,18.01,North,0,0.0,0.0,75,0.00,,SHRA,0.00,VWS V14.01,2013-11-06 04:07:00,
2013-11-06 00:12:00,77.4,68.8,18.01,North,0,0.0,0.0,75,0.00,,SHRA,0.00,VWS V14.01,2013-11-06 04:12:00,
2013-11-06 00:17:00,77.4,68.8,18.01,North,0,0.0,0.0,75,0.00,,SHRA,0.00,VWS V14.01,2013-11-06 04:17:00,
2013-11-06 00:22:00,77.4,68.8,18.01,North,0,0.0,0.0,75,0.00,,SHRA,0.00,VWS V14.01,2013-11-06 04:22:00,
2013-11-06 00:27:00,77.4,69.2,18.01,North,0,0.0,0.0,76,0.00,,SHRA,0.00,VWS V14.01,2013-11-06 04:27:00,
2013-11-06 00:32:00,77.5,69.4,18.01,North,0,0.0,0.0,76,0.00,,SHRA,0.00,VWS V14.01,2013-11-06 04:32:00,
2013-11-06 00:37:00,77.5,69.4,18.01,North,0,0.0,0.0,76,0.00,,SHRA,0.00,VWS V14.01,2013-11-06 04:37:00,
2013-11-06 00:42:00,77.5,69.4,18.01,North,0,0.0,0.0,76,0.00,,SHRA,0.00,VWS V14.01,2013-11-06 04:42:00,
2013-11-06 00:47:00,77.4,69.2,18.01,North,0,0.0,0.0,76,0.00,,SHRA,0.00,VWS V14.01,2013-11-06 04:47:00,
2013-11-06 00:52:00,77.2,69.0,18.01,North,0,0.0,0.0,76,0.00,,SHRA,0.00,VWS V14.01,2013-11-06 04:52:00,
2013-11-06 00:57:00,77.2,69.0,18.01,North,0,0.0,0.0,76,0.00,,SHRA,0.00,VWS V14.01,2013-11-06 04:57:00,
2013-11-06 01:01:00,77.0,68.9,18.01,North,0,0.0,0.0,76,0.00,,SHRA,0.00,VWS V14.01,2013-11-06 05:01:00,
2013-11-06 01:03:00,77.0,68.9,18.01,North,0,0.0,0.0,76,0.00,,SHRA,0.00,VWS V14.01,2013-11-06 05:03:00,
2013-11-06 01:08:00,76.8,69.1,18.01,North,0,0.0,0.0,77,0.00,,SHRA,0.00,VWS V14.01,2013-11-06 05:08:00,
2013-11-06 01:13:00,76.8,69.1,18.01,North,0,0.0,0.0,77,0.00,,SHRA,0.00,VWS V14.01,2013-11-06 05:13:00,
2013-11-06 01:18:00,76.8,69.1,18.01,North,0,0.0,0.0,77,0.00,,SHRA,0.00,VWS V14.01,2013-11-06 05:18:00,
2013-11-06 01:23:00,76.8,69.1,18.01,North,0,0.0,0.0,77,0.00,,SHRA,0.00,VWS V14.01,2013-11-06 05:23:00,
2013-11-06 01:28:00,76.8,69.1,18.01,North,0,0.0,0.0,77,0.00,,SHRA,0.00,VWS V14.01,2013-11-06 05:28:00,
2013-11-06 01:33:00,76.8,69.1,18.01,North,0,0.0,0.0,77,0.00,,SHRA,0.00,VWS V14.01,2013-11-06 05:33:00,
2013-11-06 01:38:00,76.6,69.3,18.01,North,0,0.0,0.0,78,0.00,,SHRA,0.00,VWS V14.01,2013-11-06 05:38:00,
2013-11-06 01:43:00,76.5,68.7,18.01,North,0,0.0,0.0,77,0.00,,SHRA,0.00,VWS V14.01,2013-11-06 05:43:00,
2013-11-06 01:48:00,76.5,68.7,18.01,North,0,0.0,0.0,77,0.00,,SHRA,0.00,VWS V14.01,2013-11-06 05:48:00,
2013-11-06 01:53:00,76.5,68.7,18.01,North,0,0.0,0.0,77,0.00,,SHRA,0.00,VWS V14.01,2013-11-06 05:53:00,
2013-11-06 01:58:00,76.5,68.7,18.01,North,0,0.0,0.0,77,0.00,,SHRA,0.00,VWS V14.01,2013-11-06 05:58:00,
2013-11-06 02:03:00,76.3,68.6,18.01,North,0,0.0,0.0,77,0.00,,SHRA,0.00,VWS V14.01,2013-11-06 06:03:00,
2013-11-06 02:08:00,76.3,68.6,18.01,North,0,0.0,0.0,77,0.00,,SHRA,0.00,VWS V14.01,2013-11-06 06:08:00,
2013-11-06 02:13:00,76.3,68.6,18.01,North,0,0.0,0.0,77,0.00,,SHRA,0.00,VWS V14.01,2013-11-06 06:13:00,
2013-11-06 02:18:00,76.3,68.6,18.01,North,0,0.0,0.0,77,0.00,,SHRA,0.00,VWS V14.01,2013-11-06 06:18:00,
2013-11-06 02:23:00,76.3,68.6,18.01,North,0,0.0,0.0,77,0.00,,SHRA,0.00,VWS V14.01,2013-11-06 06:23:00,
2013-11-06 02:28:00,76.5,68.7,18.01,North,0,0.0,0.0,77,0.00,,SHRA,0.00,VWS V14.01,2013-11-06 06:28:00,
2013-11-06 02:33:00,76.3,68.6,18.01,North,0,0.0,0.0,77,0.00,,SHRA,0.00,VWS V14.01,2013-11-06 06:33:00,
2013-11-06 02:38:00,76.1,68.4,18.01,North,0,0.0,0.0,77,0.00,,SHRA,0.00,VWS V14.01,2013-11-06 06:38:00,
2013-11-06 02:43:00,76.1,68.4,18.01,North,0,0.0,0.0,77,0.00,,SHRA,0.00,VWS V14.01,2013-11-06 06:43:00,
2013-11-06 02:48:00,76.1,68.4,18.01,North,0,0.0,0.0,77,0.00,,SHRA,0.00,VWS V14.01,2013-11-06 06:48:00,
2013-11-06 02:53:00,75.9,68.2,18.01,North,0,0.0,0.0,77,0.00,,SHRA,0.00,VWS V14.01,2013-11-06 06:53:00,
2013-11-06 02:58:00,75.9,68.2,18.01,North,0,0.0,0.0,77,0.00,,SHRA,0.00,VWS V14.01,2013-11-06 06:58:00,
2013-11-06 03:03:00,75.7,68.0,18.01,North,0,0.0,0.0,77,0.00,,SHRA,0.00,VWS V14.01,2013-11-06 07:03:00,
2013-11-06 03:08:00,75.6,67.8,18.01,North,0,0.0,0.0,77,0.00,,SHRA,0.00,VWS V14.01,2013-11-06 07:08:00,
2013-11-06 03:13:00,75.4,67.7,18.01,North,0,0.0,0.0,77,0.00,,SHRA,0.00,VWS V14.01,2013-11-06 07:13:00,
2013-11-06 03:18:00,75.4,68.1,18.01,North,0,0.0,0.0,78,0.00,,SHRA,0.00,VWS V14.01,2013-11-06 07:18:00,
2013-11-06 03:23:00,75.4,68.1,18.01,North,0,0.0,0.0,78,0.00,,SHRA,0.00,VWS V14.01,2013-11-06 07:23:00,
2013-11-06 03:28:00,75.4,68.1,18.01,North,0,0.0,0.0,78,0.00,,SHRA,0.00,VWS V14.01,2013-11-06 07:28:00,
2013-11-06 03:33:00,75.2,67.9,18.01,North,0,0.0,0.0,78,0.00,,SHRA,0.00,VWS V14.01,2013-11-06 07:33:00,
2013-11-06 03:38:00,75.4,68.4,18.01,North,0,0.0,0.0,79,0.00,,SHRA,0.00,VWS V14.01,2013-11-06 07:38:00,
2013-11-06 03:43:00,75.2,68.2,18.01,North,0,0.0,0.0,79,0.00,,SHRA,0.00,VWS V14.01,2013-11-06 07:43:00,
2013-11-06 03:48:00,75.2,68.2,18.01,North,0,0.0,0.0,79,0.00,,SHRA,0.00,VWS V14.01,2013-11-06 07:48:00,
2013-11-06 03:53:00,75.2,68.2,18.01,North,0,0.0,0.0,79,0.00,,SHRA,0.00,VWS V14.01,2013-11-06 07:53:00,
2013-11-06 03:58:00,75.2,68.2,18.01,North,0,0.0,0.0,79,0.00,,SHRA,0.00,VWS V14.01,2013-11-06 07:58:00,
2013-11-06 04:03:00,75.0,68.1,18.01,North,0,0.0,0.0,79,0.00,,SHRA,0.00,VWS V14.01,2013-11-06 08:03:00,
2013-11-06 04:08:00,75.0,68.1,18.01,North,0,0.0,0.0,79,0.00,,SHRA,0.00,VWS V14.01,2013-11-06 08:08:00,
2013-11-06 04:13:00,75.0,68.1,18.01,North,0,0.0,0.0,79,0.00,,SHRA,0.00,VWS V14.01,2013-11-06 08:13:00,
2013-11-06 04:18:00,74.8,68.3,18.01,North,0,0.0,0.0,80,0.00,,SHRA,0.00,VWS V14.01,2013-11-06 08:18:00,
2013-11-06 04:23:00,75.0,68.4,18.01,North,0,0.0,0.0,80,0.00,,SHRA,0.00,VWS V14.01,2013-11-06 08:23:00,
2013-11-06 04:28:00,74.8,68.3,18.01,North,0,0.0,0.0,80,0.00,,SHRA,0.00,VWS V14.01,2013-11-06 08:28:00,
2013-11-06 04:33:00,74.8,68.3,18.01,North,0,0.0,0.0,80,0.00,,SHRA,0.00,VWS V14.01,2013-11-06 08:33:00,
2013-11-06 04:38:00,74.8,68.3,18.01,North,0,0.0,0.0,80,0.00,,SHRA,0.00,VWS V14.01,2013-11-06 08:38:00,
2013-11-06 04:43:00,74.8,68.3,18.01,North,0,0.0,0.0,80,0.00,,SHRA,0.00,VWS V14.01,2013-11-06 08:43:00,
2013-11-06 04:48:00,74.8,68.3,18.01,North,0,0.0,0.0,80,0.00,,SHRA,0.00,VWS V14.01,2013-11-06 08:48:00,
2013-11-06 04:53:00,74.8,68.3,18.01,North,0,0.0,0.0,80,0.00,,SHRA,0.00,VWS V14.01,2013-11-06 08:53:00,
2013-11-06 04:58:00,74.7,68.1,18.01,North,0,0.0,0.0,80,0.00,,SHRA,0.00,VWS V14.01,2013-11-06 08:58:00,
2013-11-06 05:03:00,74.5,67.9,18.01,North,0,0.0,0.0,80,0.00,,SHRA,0.00,VWS V14.01,2013-11-06 09:03:00,
2013-11-06 05:08:00,74.5,67.9,18.01,North,0,0.0,0.0,80,0.00,,SHRA,0.00,VWS V14.01,2013-11-06 09:08:00,
2013-11-06 05:13:00,74.3,68.1,18.01,North,0,0.0,0.0,81,0.00,,SHRA,0.00,VWS V14.01,2013-11-06 09:13:00,
2013-11-06 05:18:00,74.3,68.4,18.01,North,0,0.0,0.0,82,0.00,,SHRA,0.00,VWS V14.01,2013-11-06 09:18:00,
2013-11-06 05:23:00,74.3,68.4,18.01,North,0,0.0,0.0,82,0.00,,SHRA,0.00,VWS V14.01,2013-11-06 09:23:00,
2013-11-06 05:28:00,74.5,68.6,18.01,North,0,0.0,0.0,82,0.00,,SHRA,0.00,VWS V14.01,2013-11-06 09:28:00,
2013-11-06 05:33:00,74.5,69.0,18.01,North,0,0.0,0.0,83,0.00,,SHRA,0.00,VWS V14.01,2013-11-06 09:33:00,
2013-11-06 05:38:00,74.5,68.6,18.01,North,0,0.0,0.0,82,0.00,,SHRA,0.00,VWS V14.01,2013-11-06 09:38:00,
2013-11-06 05:43:00,74.3,68.4,18.01,North,0,0.0,0.0,82,0.00,,SHRA,0.00,VWS V14.01,2013-11-06 09:43:00,
2013-11-06 05:48:00,74.1,68.3,18.01,North,0,0.0,0.0,82,0.00,,SHRA,0.00,VWS V14.01,2013-11-06 09:48:00,
2013-11-06 05:53:00,74.1,68.3,18.01,North,0,0.0,0.0,82,0.00,,SHRA,0.00,VWS V14.01,2013-11-06 09:53:00,
2013-11-06 05:58:00,74.1,68.3,18.01,North,0,0.0,0.0,82,0.00,,SHRA,0.00,VWS V14.01,2013-11-06 09:58:00,
2013-11-06 06:04:00,74.1,68.3,18.01,North,0,0.0,0.0,82,0.00,,SHRA,0.00,VWS V14.01,2013-11-06 10:04:00,
2013-11-06 06:09:00,74.1,68.3,18.01,North,0,0.0,0.0,82,0.00,,SHRA,0.00,VWS V14.01,2013-11-06 10:09:00,
2013-11-06 06:14:00,74.1,68.3,18.01,North,0,0.0,0.0,82,0.00,,SHRA,0.00,VWS V14.01,2013-11-06 10:14:00,
2013-11-06 06:19:00,74.1,68.6,18.01,North,0,0.0,0.0,83,0.00,,SHRA,0.00,VWS V14.01,2013-11-06 10:19:00,
2013-11-06 06:24:00,73.9,68.5,18.01,North,0,0.0,0.0,83,0.00,,SHRA,0.00,VWS V14.01,2013-11-06 10:24:00,
2013-11-06 06:29:00,73.9,68.5,18.01,North,0,0.0,0.0,83,0.00,,SHRA,0.00,VWS V14.01,2013-11-06 10:29:00,
2013-11-06 06:34:00,73.9,68.5,18.01,North,0,0.0,0.0,83,0.00,,SHRA,0.00,VWS V14.01,2013-11-06 10:34:00,
2013-11-06 06:39:00,73.9,68.5,18.01,North,0,0.0,0.0,83,0.00,,SHRA,0.00,VWS V14.01,2013-11-06 10:39:00,
2013-11-06 06:44:00,73.9,68.5,18.01,North,0,0.0,0.0,83,0.00,,SHRA,0.00,VWS V14.01,2013-11-06 10:44:00,
2013-11-06 06:49:00,73.9,68.5,18.01,North,0,0.0,0.0,83,0.00,,SHRA,0.00,VWS V14.01,2013-11-06 10:49:00,
2013-11-06 06:54:00,74.1,69.0,18.01,North,0,0.0,0.0,84,0.00,,SHRA,0.00,VWS V14.01,2013-11-06 10:54:00,
2013-11-06 06:59:00,74.5,69.3,18.01,North,0,0.0,0.0,84,0.00,,SHRA,0.00,VWS V14.01,2013-11-06 10:59:00,
2013-11-06 07:04:00,74.7,69.5,18.01,North,0,0.0,0.0,84,0.00,,SHRA,0.00,VWS V14.01,2013-11-06 11:04:00,
2013-11-06 07:09:00,75.0,69.9,18.01,North,0,0.0,0.0,84,0.00,,SHRA,0.00,VWS V14.01,2013-11-06 11:09:00,
2013-11-06 07:14:00,75.2,69.7,18.01,North,0,0.0,0.0,83,0.00,,SHRA,0.00,VWS V14.01,2013-11-06 11:14:00,
2013-11-06 07:19:00,75.4,69.9,18.01,North,0,0.0,0.0,83,0.00,,SHRA,0.00,VWS V14.01,2013-11-06 11:19:00,
2013-11-06 07:24:00,75.6,70.0,18.01,North,0,0.0,0.0,83,0.00,,SHRA,0.00,VWS V14.01,2013-11-06 11:24:00,
2013-11-06 07:29:00,75.7,70.2,18.01,North,0,0.0,0.0,83,0.00,,SHRA,0.00,VWS V14.01,2013-11-06 11:29:00,
2013-11-06 07:34:00,76.1,70.6,18.01,North,0,0.0,0.0,83,0.00,,SHRA,0.00,VWS V14.01,2013-11-06 11:34:00,
2013-11-06 07:39:00,76.3,70.4,18.01,North,0,0.0,0.0,82,0.00,,SHRA,0.00,VWS V14.01,2013-11-06 11:39:00,
2013-11-06 07:44:00,76.6,70.4,18.01,North,0,0.0,0.0,81,0.00,,SHRA,0.00,VWS V14.01,2013-11-06 11:44:00,
2013-11-06 07:49:00,77.0,70.4,18.01,North,0,0.0,0.0,80,0.00,,SHRA,0.00,VWS V14.01,2013-11-06 11:49:00,
2013-11-06 07:54:00,77.4,70.3,18.01,North,0,0.0,0.0,79,0.00,,SHRA,0.00,VWS V14.01,2013-11-06 11:54:00,
2013-11-06 07:59:00,77.5,70.1,18.01,North,0,0.0,0.0,78,0.00,,SHRA,0.00,VWS V14.01,2013-11-06 11:59:00,
2013-11-06 08:04:00,78.3,70.1,18.01,North,0,0.0,0.0,76,0.00,,SHRA,0.00,VWS V14.01,2013-11-06 12:04:00,
2013-11-06 08:09:00,78.6,70.4,18.01,North,0,0.0,0.0,76,0.00,,SHRA,0.00,VWS V14.01,2013-11-06 12:09:00,
2013-11-06 08:14:00,79.0,70.4,18.01,North,0,0.0,0.0,75,0.00,,SHRA,0.00,VWS V14.01,2013-11-06 12:14:00,
2013-11-06 08:19:00,79.2,70.2,18.01,North,0,0.0,0.0,74,0.00,,SHRA,0.00,VWS V14.01,2013-11-06 12:19:00,
2013-11-06 08:24:00,79.5,70.5,18.01,North,0,0.0,0.0,74,0.00,,SHRA,0.00,VWS V14.01,2013-11-06 12:24:00,
2013-11-06 08:29:00,79.9,70.5,18.01,North,0,0.0,0.0,73,0.00,,SHRA,0.00,VWS V14.01,2013-11-06 12:29:00,
2013-11-06 08:34:00,80.2,70.4,18.01,North,0,0.0,0.0,72,0.00,,SHRA,0.00,VWS V14.01,2013-11-06 12:34:00,
2013-11-06 08:39:00,80.2,69.2,18.01,North,0,0.0,0.0,69,0.00,,SHRA,0.00,VWS V14.01,2013-11-06 12:39:00,
2013-11-06 08:44:00,80.6,69.1,18.01,North,0,0.0,0.0,68,0.00,,SHRA,0.00,VWS V14.01,2013-11-06 12:44:00,
2013-11-06 08:49:00,81.1,69.2,18.01,North,0,0.0,0.0,67,0.00,,SHRA,0.00,VWS V14.01,2013-11-06 12:49:00,
2013-11-06 08:54:00,81.5,68.2,18.01,North,0,0.0,0.0,64,0.00,,SHRA,0.00,VWS V14.01,2013-11-06 12:54:00,
2013-11-06 08:59:00,81.3,63.1,18.01,North,0,0.0,0.0,54,0.00,,SHRA,0.00,VWS V14.01,2013-11-06 12:59:00,
2013-11-06 09:04:00,81.7,63.4,18.01,North,0,0.0,0.0,54,0.00,,SHRA,0.00,VWS V14.01,2013-11-06 13:04:00,
2013-11-06 09:09:00,82.0,64.3,18.01,North,0,0.0,0.0,55,0.00,,SHRA,0.00,VWS V14.01,2013-11-06 13:09:00,
2013-11-06 09:14:00,82.0,62.7,18.01,North,0,0.0,0.0,52,0.00,,SHRA,0.00,VWS V14.01,2013-11-06 13:14:00,
2013-11-06 09:19:00,82.2,62.3,18.01,North,0,0.0,0.0,51,0.00,,SHRA,0.00,VWS V14.01,2013-11-06 13:19:00,
2013-11-06 09:24:00,82.4,61.9,18.01,North,0,0.0,0.0,50,0.00,,SHRA,0.00,VWS V14.01,2013-11-06 13:24:00,
2013-11-06 09:29:00,81.9,60.8,18.01,North,0,0.0,0.0,49,0.00,,SHRA,0.00,VWS V14.01,2013-11-06 13:29:00,
2013-11-06 09:34:00,81.5,60.5,18.01,North,0,0.0,0.0,49,0.00,,SHRA,0.00,VWS V14.01,2013-11-06 13:34:00,
2013-11-06 09:39:00,81.9,60.8,18.01,North,0,0.0,0.0,49,0.00,,SHRA,0.00,VWS V14.01,2013-11-06 13:39:00,
2013-11-06 09:44:00,83.1,60.2,18.01,North,0,0.0,0.0,46,0.00,,SHRA,0.00,VWS V14.01,2013-11-06 13:44:00,
2013-11-06 09:49:00,84.0,59.8,18.01,North,0,0.0,0.0,44,0.00,,SHRA,0.00,VWS V14.01,2013-11-06 13:49:00,
2013-11-06 09:54:00,84.6,58.3,18.01,North,0,0.0,0.0,41,0.00,,SHRA,0.00,VWS V14.01,2013-11-06 13:54:00,
2013-11-06 09:59:00,84.9,57.9,18.01,North,0,0.0,0.0,40,0.00,,SHRA,0.00,VWS V14.01,2013-11-06 13:59:00,
2013-11-06 10:04:00,85.5,58.4,18.01,North,0,0.0,0.0,40,0.00,,SHRA,0.00,VWS V14.01,2013-11-06 14:04:00,
2013-11-06 10:09:00,85.8,54.2,18.01,North,0,0.0,0.0,34,0.00,,SHRA,0.00,VWS V14.01,2013-11-06 14:09:00,
2013-11-06 10:14:00,86.0,51.0,18.01,North,0,0.0,0.0,30,0.00,,SHRA,0.00,VWS V14.01,2013-11-06 14:14:00,
2013-11-06 10:19:00,86.7,50.7,18.01,North,0,0.0,0.0,29,0.00,,SHRA,0.00,VWS V14.01,2013-11-06 14:19:00,
2013-11-06 10:24:00,87.1,51.0,18.01,North,0,0.0,0.0,29,0.00,,SHRA,0.00,VWS V14.01,2013-11-06 14:24:00,
2013-11-06 10:29:00,86.9,50.8,18.01,North,0,0.0,0.0,29,0.00,,SHRA,0.00,VWS V14.01,2013-11-06 14:29:00,
2013-11-06 10:34:00,86.7,50.7,18.01,North,0,0.0,0.0,29,0.00,,SHRA,0.00,VWS V14.01,2013-11-06 14:34:00,
2013-11-06 10:39:00,85.8,49.9,18.01,North,0,0.0,0.0,29,0.00,,SHRA,0.00,VWS V14.01,2013-11-06 14:39:00,
2013-11-06 10:44:00,86.0,51.0,18.01,North,0,0.0,0.0,30,0.00,,SHRA,0.00,VWS V14.01,2013-11-06 14:44:00,
2013-11-06 10:49:00,86.4,50.4,18.01,North,0,0.0,0.0,29,0.00,,SHRA,0.00,VWS V14.01,2013-11-06 14:49:00,
2013-11-06 10:54:00,86.5,49.6,18.01,North,0,0.0,0.0,28,0.00,,SHRA,0.00,VWS V14.01,2013-11-06 14:54:00,
2013-11-06 10:59:00,86.7,48.8,18.01,North,0,0.0,0.0,27,0.00,,SHRA,0.00,VWS V14.01,2013-11-06 14:59:00,
2013-11-06 11:04:00,86.9,47.9,18.01,North,0,0.0,0.0,26,0.00,,SHRA,0.00,VWS V14.01,2013-11-06 15:04:00,
2013-11-06 11:09:00,87.1,50.1,18.01,North,0,0.0,0.0,28,0.00,,SHRA,0.00,VWS V14.01,2013-11-06 15:09:00,
2013-11-06 11:14:00,87.8,50.7,18.01,North,0,0.0,0.0,28,0.00,,SHRA,0.00,VWS V14.01,2013-11-06 15:14:00,
2013-11-06 11:19:00,87.3,45.0,18.01,North,0,0.0,0.0,23,0.00,,SHRA,0.00,VWS V14.01,2013-11-06 15:19:00,
2013-11-06 11:24:00,87.1,49.1,18.01,North,0,0.0,0.0,27,0.00,,SHRA,0.00,VWS V14.01,2013-11-06 15:24:00,
2013-11-06 11:29:00,86.9,51.8,18.01,North,0,0.0,0.0,30,0.00,,SHRA,0.00,VWS V14.01,2013-11-06 15:29:00,
2013-11-06 11:34:00,86.9,51.8,18.01,North,0,0.0,0.0,30,0.00,,SHRA,0.00,VWS V14.01,2013-11-06 15:34:00,
2013-11-06 11:39:00,87.1,51.0,18.01,North,0,0.0,0.0,29,0.00,,SHRA,0.00,VWS V14.01,2013-11-06 15:39:00,
2013-11-06 11:44:00,87.1,51.0,18.01,North,0,0.0,0.0,29,0.00,,SHRA,0.00,VWS V14.01,2013-11-06 15:44:00,
2013-11-06 11:49:00,87.6,52.4,18.01,North,0,0.0,0.0,30,0.00,,SHRA,0.00,VWS V14.01,2013-11-06 15:49:00,
2013-11-06 11:54:00,88.7,51.4,18.01,North,0,0.0,0.0,28,0.00,,SHRA,0.00,VWS V14.01,2013-11-06 15:54:00,
2013-11-06 11:59:00,89.4,49.0,18.01,North,0,0.0,0.0,25,0.00,,SHRA,0.00,VWS V14.01,2013-11-06 15:59:00,
2013-11-06 12:04:00,89.6,50.2,18.01,North,0,0.0,0.0,26,0.00,,SHRA,0.00,VWS V14.01,2013-11-06 16:04:00,
2013-11-06 12:09:00,89.1,51.8,18.01,North,0,0.0,0.0,28,0.00,,SHRA,0.00,VWS V14.01,2013-11-06 16:09:00,
2013-11-06 12:14:00,87.6,51.5,18.01,North,0,0.0,0.0,29,0.00,,SHRA,0.00,VWS V14.01,2013-11-06 16:14:00,
2013-11-06 12:19:00,86.7,51.6,18.01,North,0,0.0,0.0,30,0.00,,SHRA,0.00,VWS V14.01,2013-11-06 16:19:00,
2013-11-06 12:28:00,86.5,52.3,18.01,North,0,0.0,0.0,31,0.00,,SHRA,0.00,VWS V14.01,2013-11-06 16:28:00,
2013-11-06 12:37:00,84.2,58.6,18.01,North,0,0.0,0.0,42,0.00,,SHRA,0.00,VWS V14.01,2013-11-06 16:37:00,
2013-11-06 12:42:00,82.4,60.8,18.01,North,0,0.0,0.0,48,0.04,,SHRA,0.04,VWS V14.01,2013-11-06 16:42:00,
2013-11-06 12:47:00,81.9,63.6,18.01,North,0,0.0,0.0,54,0.04,,SHRA,0.04,VWS V14.01,2013-11-06 16:47:00,
2013-11-06 12:52:00,81.9,65.2,18.01,North,0,0.0,0.0,57,0.04,,SHRA,0.04,VWS V14.01,2013-11-06 16:52:00,
2013-11-06 12:57:00,82.6,67.3,18.01,North,0,0.0,0.0,60,0.04,,SHRA,0.04,VWS V14.01,2013-11-06 16:57:00,
2013-11-06 13:02:00,82.8,67.9,18.01,North,0,0.0,0.0,61,0.04,,SHRA,0.04,VWS V14.01,2013-11-06 17:02:00,
2013-11-06 13:07:00,82.4,67.6,18.01,North,0,0.0,0.0,61,0.08,,SHRA,0.08,VWS V14.01,2013-11-06 17:07:00,
2013-11-06 13:12:00,81.7,67.4,18.01,North,0,0.0,0.0,62,0.08,,SHRA,0.08,VWS V14.01,2013-11-06 17:12:00,
2013-11-06 13:17:00,81.5,67.7,18.01,North,0,0.0,0.0,63,0.08,,SHRA,0.08,VWS V14.01,2013-11-06 17:17:00,
2013-11-06 13:22:00,81.5,68.2,18.01,North,0,0.0,0.0,64,0.08,,SHRA,0.08,VWS V14.01,2013-11-06 17:22:00,
2013-11-06 13:27:00,81.3,68.0,18.01,North,0,0.0,0.0,64,0.08,,SHRA,0.08,VWS V14.01,2013-11-06 17:27:00,
2013-11-06 13:32:00,81.3,68.4,18.01,North,0,0.0,0.0,65,0.08,,SHRA,0.08,VWS V14.01,2013-11-06 17:32:00,
2013-11-06 13:37:00,81.3,68.0,18.01,North,0,0.0,0.0,64,0.08,,SHRA,0.08,VWS V14.01,2013-11-06 17:37:00,
2013-11-06 13:42:00,81.1,67.8,18.01,North,0,0.0,0.0,64,0.04,,SHRA,0.08,VWS V14.01,2013-11-06 17:42:00,
2013-11-06 13:47:00,81.1,67.8,18.01,North,0,0.0,0.0,64,0.04,,SHRA,0.08,VWS V14.01,2013-11-06 17:47:00,
2013-11-06 13:52:00,81.3,68.0,18.01,North,0,0.0,0.0,64,0.04,,SHRA,0.08,VWS V14.01,2013-11-06 17:52:00,
2013-11-06 13:57:00,81.5,68.6,18.01,North,0,0.0,0.0,65,0.04,,SHRA,0.08,VWS V14.01,2013-11-06 17:57:00,
2013-11-06 14:02:00,81.3,68.0,18.01,North,0,0.0,0.0,64,0.04,,SHRA,0.08,VWS V14.01,2013-11-06 18:02:00,
2013-11-06 14:07:00,81.1,67.8,18.01,North,0,0.0,0.0,64,0.04,,SHRA,0.08,VWS V14.01,2013-11-06 18:07:00,
2013-11-06 14:12:00,81.1,67.8,18.01,North,0,0.0,0.0,64,0.04,,SHRA,0.08,VWS V14.01,2013-11-06 18:12:00,
2013-11-06 14:17:00,81.3,68.0,18.01,North,0,0.0,0.0,64,0.04,,SHRA,0.08,VWS V14.01,2013-11-06 18:17:00,
2013-11-06 14:22:00,81.5,68.2,18.01,North,0,0.0,0.0,64,0.00,,SHRA,0.08,VWS V14.01,2013-11-06 18:22:00,
2013-11-06 14:27:00,81.5,68.2,18.01,North,0,0.0,0.0,64,0.00,,SHRA,0.08,VWS V14.01,2013-11-06 18:27:00,
2013-11-06 14:32:00,82.0,68.7,18.01,North,0,0.0,0.0,64,0.00,,SHRA,0.08,VWS V14.01,2013-11-06 18:32:00,
2013-11-06 14:37:00,82.0,67.8,18.01,North,0,0.0,0.0,62,0.00,,SHRA,0.08,VWS V14.01,2013-11-06 18:37:00,
2013-11-06 14:42:00,82.4,66.7,18.01,North,0,0.0,0.0,59,0.00,,SHRA,0.08,VWS V14.01,2013-11-06 18:42:00,
2013-11-06 14:47:00,82.6,65.8,18.01,North,0,0.0,0.0,57,0.00,,SHRA,0.08,VWS V14.01,2013-11-06 18:47:00,
2013-11-06 14:52:00,83.7,67.3,18.01,North,0,0.0,0.0,58,0.00,,SHRA,0.08,VWS V14.01,2013-11-06 18:52:00,
2013-11-06 14:57:00,83.8,62.7,18.01,North,0,0.0,0.0,49,0.00,,SHRA,0.08,VWS V14.01,2013-11-06 18:57:00,
2013-11-06 15:02:00,84.2,63.6,18.01,North,0,0.0,0.0,50,0.00,,SHRA,0.08,VWS V14.01,2013-11-06 19:02:00,
2013-11-06 15:07:00,84.6,62.1,18.01,North,0,0.0,0.0,47,0.00,,SHRA,0.08,VWS V14.01,2013-11-06 19:07:00,
2013-11-06 15:12:00,84.9,63.7,18.01,North,0,0.0,0.0,49,0.00,,SHRA,0.08,VWS V14.01,2013-11-06 19:12:00,
2013-11-06 15:18:00,85.3,60.9,18.01,North,0,0.0,0.0,44,0.00,,SHRA,0.08,VWS V14.01,2013-11-06 19:18:00,
2013-11-06 15:23:00,85.5,60.4,18.01,North,0,0.0,0.0,43,0.00,,SHRA,0.08,VWS V14.01,2013-11-06 19:23:00,
2013-11-06 15:28:00,86.0,60.9,18.01,North,0,0.0,0.0,43,0.00,,SHRA,0.08,VWS V14.01,2013-11-06 19:28:00,
2013-11-06 15:33:00,86.4,60.6,18.01,North,0,0.0,0.0,42,0.00,,SHRA,0.08,VWS V14.01,2013-11-06 19:33:00,
2013-11-06 15:38:00,86.5,58.7,18.01,North,0,0.0,0.0,39,0.00,,SHRA,0.08,VWS V14.01,2013-11-06 19:38:00,
2013-11-06 15:43:00,86.5,57.9,18.01,North,0,0.0,0.0,38,0.00,,SHRA,0.08,VWS V14.01,2013-11-06 19:43:00,
2013-11-06 15:48:00,86.5,57.2,18.01,North,0,0.0,0.0,37,0.00,,SHRA,0.08,VWS V14.01,2013-11-06 19:48:00,
2013-11-06 15:53:00,86.5,55.7,18.01,North,0,0.0,0.0,35,0.00,,SHRA,0.08,VWS V14.01,2013-11-06 19:53:00,
2013-11-06 15:58:00,86.9,55.2,18.01,North,0,0.0,0.0,34,0.00,,SHRA,0.08,VWS V14.01,2013-11-06 19:58:00,
2013-11-06 16:03:00,86.9,56.0,18.01,North,0,0.0,0.0,35,0.00,,SHRA,0.08,VWS V14.01,2013-11-06 20:03:00,
2013-11-06 16:08:00,86.9,55.2,18.01,North,0,0.0,0.0,34,0.00,,SHRA,0.08,VWS V14.01,2013-11-06 20:08:00,
2013-11-06 16:13:00,87.1,55.3,18.01,North,0,0.0,0.0,34,0.00,,SHRA,0.08,VWS V14.01,2013-11-06 20:13:00,
2013-11-06 16:18:00,87.1,54.5,18.01,North,0,0.0,0.0,33,0.00,,SHRA,0.08,VWS V14.01,2013-11-06 20:18:00,
2013-11-06 16:23:00,86.7,53.4,18.01,North,0,0.0,0.0,32,0.00,,SHRA,0.08,VWS V14.01,2013-11-06 20:23:00,
2013-11-06 16:28:00,86.7,54.2,18.01,North,0,0.0,0.0,33,0.00,,SHRA,0.08,VWS V14.01,2013-11-06 20:28:00,
2013-11-06 16:33:00,86.5,54.0,18.01,North,0,0.0,0.0,33,0.00,,SHRA,0.08,VWS V14.01,2013-11-06 20:33:00,
2013-11-06 16:38:00,86.7,54.2,18.01,North,0,0.0,0.0,33,0.00,,SHRA,0.08,VWS V14.01,2013-11-06 20:38:00,
2013-11-06 16:43:00,86.5,54.0,18.01,North,0,0.0,0.0,33,0.00,,SHRA,0.08,VWS V14.01,2013-11-06 20:43:00,
2013-11-06 16:48:00,86.4,53.9,18.01,North,0,0.0,0.0,33,0.00,,SHRA,0.08,VWS V14.01,2013-11-06 20:48:00,
2013-11-06 16:53:00,85.8,53.4,18.01,North,0,0.0,0.0,33,0.00,,SHRA,0.08,VWS V14.01,2013-11-06 20:53:00,
2013-11-06 16:58:00,85.6,53.3,18.01,North,0,0.0,0.0,33,0.00,,SHRA,0.08,VWS V14.01,2013-11-06 20:58:00,
2013-11-06 17:03:00,85.5,53.9,18.01,North,0,0.0,0.0,34,0.00,,SHRA,0.08,VWS V14.01,2013-11-06 21:03:00,
2013-11-06 17:08:00,85.3,53.8,18.01,North,0,0.0,0.0,34,0.00,,SHRA,0.08,VWS V14.01,2013-11-06 21:08:00,
2013-11-06 17:13:00,85.1,52.8,18.01,North,0,0.0,0.0,33,0.00,,SHRA,0.08,VWS V14.01,2013-11-06 21:13:00,
2013-11-06 17:18:00,84.7,51.6,18.01,North,0,0.0,0.0,32,0.00,,SHRA,0.08,VWS V14.01,2013-11-06 21:18:00,
2013-11-06 17:23:00,84.6,51.5,18.01,North,0,0.0,0.0,32,0.00,,SHRA,0.08,VWS V14.01,2013-11-06 21:23:00,
2013-11-06 17:28:00,84.4,53.0,18.01,North,0,0.0,0.0,34,0.00,,SHRA,0.08,VWS V14.01,2013-11-06 21:28:00,
2013-11-06 17:33:00,84.0,55.7,18.01,North,0,0.0,0.0,38,0.00,,SHRA,0.08,VWS V14.01,2013-11-06 21:33:00,
2013-11-06 17:38:00,83.5,57.3,18.01,North,0,0.0,0.0,41,0.00,,SHRA,0.08,VWS V14.01,2013-11-06 21:38:00,
2013-11-06 17:43:00,82.8,58.0,18.01,North,0,0.0,0.0,43,0.00,,SHRA,0.08,VWS V14.01,2013-11-06 21:43:00,
2013-11-06 17:48:00,82.0,63.8,18.01,North,0,0.0,0.0,54,0.00,,SHRA,0.08,VWS V14.01,2013-11-06 21:48:00,
2013-11-06 17:53:00,81.1,65.9,18.01,North,0,0.0,0.0,60,0.00,,SHRA,0.08,VWS V14.01,2013-11-06 21:53:00,
2013-11-06 17:58:00,80.6,66.4,18.01,North,0,0.0,0.0,62,0.00,,SHRA,0.08,VWS V14.01,2013-11-06 21:58:00,
2013-11-06 18:03:00,79.9,67.1,18.01,North,0,0.0,0.0,65,0.04,,SHRA,0.12,VWS V14.01,2013-11-06 22:03:00,
2013-11-06 18:08:00,79.5,67.2,18.01,North,0,0.0,0.0,66,0.04,,SHRA,0.12,VWS V14.01,2013-11-06 22:08:00,
2013-11-06 18:13:00,79.5,67.2,18.01,North,0,0.0,0.0,66,0.04,,SHRA,0.12,VWS V14.01,2013-11-06 22:13:00,
2013-11-06 18:18:00,79.3,67.0,18.01,North,0,0.0,0.0,66,0.04,,SHRA,0.12,VWS V14.01,2013-11-06 22:18:00,
2013-11-06 18:23:00,79.7,67.3,18.01,North,0,0.0,0.0,66,0.04,,SHRA,0.12,VWS V14.01,2013-11-06 22:23:00,
2013-11-06 18:28:00,79.5,67.2,18.01,North,0,0.0,0.0,66,0.04,,SHRA,0.12,VWS V14.01,2013-11-06 22:28:00,
2013-11-06 18:33:00,79.5,67.2,18.01,North,0,0.0,0.0,66,0.04,,SHRA,0.12,VWS V14.01,2013-11-06 22:33:00,
2013-11-06 18:38:00,79.5,67.6,18.01,North,0,0.0,0.0,67,0.04,,SHRA,0.12,VWS V14.01,2013-11-06 22:38:00,
2013-11-06 18:43:00,79.3,67.4,18.01,North,0,0.0,0.0,67,0.04,,SHRA,0.12,VWS V14.01,2013-11-06 22:43:00,
2013-11-06 18:48:00,79.5,68.0,18.01,North,0,0.0,0.0,68,0.04,,SHRA,0.12,VWS V14.01,2013-11-06 22:48:00,
2013-11-06 18:53:00,79.5,68.5,18.01,North,0,0.0,0.0,69,0.04,,SHRA,0.12,VWS V14.01,2013-11-06 22:53:00,
2013-11-06 18:58:00,79.5,68.9,18.01,North,0,0.0,0.0,70,0.04,,SHRA,0.12,VWS V14.01,2013-11-06 22:58:00,
2013-11-06 19:03:00,79.5,69.3,18.01,North,0,0.0,0.0,71,0.04,,SHRA,0.12,VWS V14.01,2013-11-06 23:03:00,
2013-11-06 19:08:00,79.3,69.1,18.01,North,0,0.0,0.0,71,0.04,,SHRA,0.12,VWS V14.01,2013-11-06 23:08:00,
2013-11-06 19:13:00,79.3,69.1,18.01,North,0,0.0,0.0,71,0.04,,SHRA,0.12,VWS V14.01,2013-11-06 23:13:00,
2013-11-06 19:18:00,79.2,68.9,18.01,North,0,0.0,0.0,71,0.04,,SHRA,0.12,VWS V14.01,2013-11-06 23:18:00,
2013-11-06 19:23:00,79.3,69.5,18.01,North,0,0.0,0.0,72,0.00,,SHRA,0.12,VWS V14.01,2013-11-06 23:23:00,
2013-11-06 19:28:00,79.2,69.4,18.01,North,0,0.0,0.0,72,0.00,,SHRA,0.12,VWS V14.01,2013-11-06 23:28:00,
2013-11-06 19:33:00,79.0,69.2,18.01,North,0,0.0,0.0,72,0.00,,SHRA,0.12,VWS V14.01,2013-11-06 23:33:00,
2013-11-06 19:38:00,78.8,68.6,18.01,North,0,0.0,0.0,71,0.00,,SHRA,0.12,VWS V14.01,2013-11-06 23:38:00,
2013-11-06 19:43:00,78.6,68.8,18.01,North,0,0.0,0.0,72,0.00,,SHRA,0.12,VWS V14.01,2013-11-06 23:43:00,
2013-11-06 19:48:00,78.4,68.7,18.01,North,0,0.0,0.0,72,0.00,,SHRA,0.12,VWS V14.01,2013-11-06 23:48:00,
2013-11-06 19:53:00,78.3,68.9,18.01,North,0,0.0,0.0,73,0.00,,SHRA,0.12,VWS V14.01,2013-11-06 23:53:00,
2013-11-06 19:58:00,78.3,68.9,18.01,North,0,0.0,0.0,73,0.00,,SHRA,0.12,VWS V14.01,2013-11-06 23:58:00,
2013-11-06 20:03:00,78.1,68.7,18.01,North,0,0.0,0.0,73,0.00,,SHRA,0.12,VWS V14.01,2013-11-07 00:03:00,
2013-11-06 20:08:00,77.9,68.9,18.01,North,0,0.0,0.0,74,0.00,,SHRA,0.12,VWS V14.01,2013-11-07 00:08:00,
2013-11-06 20:13:00,78.1,69.1,18.01,North,0,0.0,0.0,74,0.00,,SHRA,0.12,VWS V14.01,2013-11-07 00:13:00,
2013-11-06 20:18:00,78.1,69.1,18.01,North,0,0.0,0.0,74,0.00,,SHRA,0.12,VWS V14.01,2013-11-07 00:18:00,
2013-11-06 20:23:00,78.1,69.1,18.01,North,0,0.0,0.0,74,0.00,,SHRA,0.12,VWS V14.01,2013-11-07 00:23:00,
2013-11-06 20:28:00,78.1,69.1,18.01,North,0,0.0,0.0,74,0.00,,SHRA,0.12,VWS V14.01,2013-11-07 00:28:00,
2013-11-06 20:33:00,77.9,68.9,18.01,North,0,0.0,0.0,74,0.00,,SHRA,0.12,VWS V14.01,2013-11-07 00:33:00,
2013-11-06 20:38:00,77.7,68.8,18.01,North,0,0.0,0.0,74,0.00,,SHRA,0.12,VWS V14.01,2013-11-07 00:38:00,
2013-11-06 20:43:00,77.4,68.4,18.01,North,0,0.0,0.0,74,0.00,,SHRA,0.12,VWS V14.01,2013-11-07 00:43:00,
2013-11-06 20:48:00,77.4,68.4,18.01,North,0,0.0,0.0,74,0.00,,SHRA,0.12,VWS V14.01,2013-11-07 00:48:00,
2013-11-06 20:53:00,77.4,68.4,18.01,North,0,0.0,0.0,74,0.00,,SHRA,0.12,VWS V14.01,2013-11-07 00:53:00,
2013-11-06 20:58:00,77.4,68.8,18.01,North,0,0.0,0.0,75,0.00,,SHRA,0.12,VWS V14.01,2013-11-07 00:58:00,
2013-11-06 21:03:00,77.4,68.8,18.01,North,0,0.0,0.0,75,0.00,,SHRA,0.12,VWS V14.01,2013-11-07 01:03:00,
2013-11-06 21:08:00,77.5,69.0,18.01,North,0,0.0,0.0,75,0.00,,SHRA,0.12,VWS V14.01,2013-11-07 01:08:00,
2013-11-06 21:13:00,77.4,68.8,18.01,North,0,0.0,0.0,75,0.00,,SHRA,0.12,VWS V14.01,2013-11-07 01:13:00,
2013-11-06 21:18:00,77.2,68.7,18.01,North,0,0.0,0.0,75,0.00,,SHRA,0.12,VWS V14.01,2013-11-07 01:18:00,
2013-11-06 21:23:00,77.4,69.2,18.01,North,0,0.0,0.0,76,0.00,,SHRA,0.12,VWS V14.01,2013-11-07 01:23:00,
2013-11-06 21:28:00,77.4,69.2,18.01,North,0,0.0,0.0,76,0.00,,SHRA,0.12,VWS V14.01,2013-11-07 01:28:00,
2013-11-06 21:33:00,77.4,69.2,18.01,North,0,0.0,0.0,76,0.00,,SHRA,0.12,VWS V14.01,2013-11-07 01:33:00,
2013-11-06 21:38:00,77.2,69.0,18.01,North,0,0.0,0.0,76,0.00,,SHRA,0.12,VWS V14.01,2013-11-07 01:38:00,
2013-11-06 21:43:00,77.0,68.9,18.01,North,0,0.0,0.0,76,0.00,,SHRA,0.12,VWS V14.01,2013-11-07 01:43:00,
2013-11-06 21:48:00,77.0,68.9,18.01,North,0,0.0,0.0,76,0.00,,SHRA,0.12,VWS V14.01,2013-11-07 01:48:00,
2013-11-06 21:53:00,77.0,68.9,18.01,North,0,0.0,0.0,76,0.00,,SHRA,0.12,VWS V14.01,2013-11-07 01:53:00,
2013-11-06 21:58:00,76.6,68.9,18.01,North,0,0.0,0.0,77,0.00,,SHRA,0.12,VWS V14.01,2013-11-07 01:58:00,
2013-11-06 22:03:00,76.5,68.7,18.01,North,0,0.0,0.0,77,0.00,,SHRA,0.12,VWS V14.01,2013-11-07 02:03:00,
2013-11-06 22:08:00,76.5,68.7,18.01,North,0,0.0,0.0,77,0.00,,SHRA,0.12,VWS V14.01,2013-11-07 02:08:00,
2013-11-06 22:13:00,76.5,68.7,18.01,North,0,0.0,0.0,77,0.00,,SHRA,0.12,VWS V14.01,2013-11-07 02:13:00,
2013-11-06 22:18:00,76.5,68.7,18.01,North,0,0.0,0.0,77,0.00,,SHRA,0.12,VWS V14.01,2013-11-07 02:18:00,
2013-11-06 22:23:00,76.6,68.9,18.01,North,0,0.0,0.0,77,0.00,,SHRA,0.12,VWS V14.01,2013-11-07 02:23:00,
2013-11-06 22:28:00,76.5,69.1,18.01,North,0,0.0,0.0,78,0.00,,SHRA,0.12,VWS V14.01,2013-11-07 02:28:00,
2013-11-06 22:33:00,76.3,68.9,18.01,North,0,0.0,0.0,78,0.00,,SHRA,0.12,VWS V14.01,2013-11-07 02:33:00,
2013-11-06 22:38:00,76.1,68.4,18.01,North,0,0.0,0.0,77,0.00,,SHRA,0.12,VWS V14.01,2013-11-07 02:38:00,
2013-11-06 22:43:00,76.1,68.8,18.01,North,0,0.0,0.0,78,0.00,,SHRA,0.12,VWS V14.01,2013-11-07 02:43:00,
2013-11-06 22:48:00,76.1,68.8,18.01,North,0,0.0,0.0,78,0.00,,SHRA,0.12,VWS V14.01,2013-11-07 02:48:00,
2013-11-06 22:53:00,75.9,68.6,18.01,North,0,0.0,0.0,78,0.00,,SHRA,0.12,VWS V14.01,2013-11-07 02:53:00,
2013-11-06 22:58:00,75.9,68.6,18.01,North,0,0.0,0.0,78,0.00,,SHRA,0.12,VWS V14.01,2013-11-07 02:58:00,
2013-11-06 23:04:00,75.7,68.4,18.01,North,0,0.0,0.0,78,0.00,,SHRA,0.12,VWS V14.01,2013-11-07 03:04:00,
2013-11-06 23:09:00,75.7,68.4,18.01,North,0,0.0,0.0,78,0.00,,SHRA,0.12,VWS V14.01,2013-11-07 03:09:00,
2013-11-06 23:14:00,75.6,68.2,18.01,North,0,0.0,0.0,78,0.00,,SHRA,0.12,VWS V14.01,2013-11-07 03:14:00,
2013-11-06 23:19:00,75.6,68.2,18.01,North,0,0.0,0.0,78,0.00,,SHRA,0.12,VWS V14.01,2013-11-07 03:19:00,
2013-11-06 23:24:00,75.4,68.1,18.01,North,0,0.0,0.0,78,0.00,,SHRA,0.12,VWS V14.01,2013-11-07 03:24:00,
2013-11-06 23:29:00,75.4,68.4,18.01,North,0,0.0,0.0,79,0.00,,SHRA,0.12,VWS V14.01,2013-11-07 03:29:00,
2013-11-06 23:34:00,75.2,68.2,18.01,North,0,0.0,0.0,79,0.00,,SHRA,0.12,VWS V14.01,2013-11-07 03:34:00,
2013-11-06 23:39:00,75.4,68.4,18.01,North,0,0.0,0.0,79,0.00,,SHRA,0.12,VWS V14.01,2013-11-07 03:39:00,
2013-11-06 23:44:00,75.2,68.2,18.01,North,0,0.0,0.0,79,0.00,,SHRA,0.12,VWS V14.01,2013-11-07 03:44:00,
2013-11-06 23:49:00,75.4,68.4,18.01,North,0,0.0,0.0,79,0.00,,SHRA,0.12,VWS V14.01,2013-11-07 03:49:00,
2013-11-06 23:54:00,75.2,68.2,18.01,North,0,0.0,0.0,79,0.00,,SHRA,0.12,VWS V14.01,2013-11-07 03:54:00,
2013-11-06 23:59:00,75.4,68.8,18.01,North,0,0.0,0.0,80,0.00,,SHRA,0.12,VWS V14.01,2013-11-07 03:59:00,